Weather History for Jackson, KY

Change the Weather History Date:

Monday, July 21, 2014

  Actual Average Record
Temperature  
Mean Temperature 78 °F 75 °F  
Max Temperature 87 °F 85 °F 93 °F (1983)
Min Temperature 68 °F 66 °F 57 °F (2007)
Degree Days  
Heating Degree Days 0 0  
Month to date heating degree days 1 0  
Since 1 June heating degree days 1 12  
Since 1 July heating degree days 1 0  
Cooling Degree Days 13 10  
Month to date cooling degree days 193 216  
Year to date cooling degree days 671 575  
Since 1 June cooling degree days 480 439  
Growing Degree Days 27 (Base 50)    
Moisture  
Dew Point 67 °F    
Average Humidity 71    
Maximum Humidity 93    
Minimum Humidity 48    
Precipitation  
Precipitation 0.00 in 0.15 in 2.32 in (1985)
Month to date precipitation 3.73 3.12  
Year to date precipitation 27.71 28.33  
Snow  
Snow 0.00 in 0.00 in - ()
Month to date snowfall 0.0 0.0  
Since 1 June snowfall 0.0 0.0  
Since 1 July snowfall 0.0 0.0  
Snow Depth 0.00 in    
Sea Level Pressure  
Sea Level Pressure 30.08 in    
Wind  
Wind Speed 1 mph (SE)    
Max Wind Speed 7 mph    
Max Gust Speed 12 mph    
Visibility 7 miles    
Events Fog    
T = Trace of Precipitation, MM = Missing Value Source: NWS Daily Summary

Daily Weather History Graph

Daily Weather History Graph

Search for Another Location

Airport:

Trip Planner

Search our weather history database for the weather conditions in past years. The results will help you decide how hot, cold, wet, or windy it might be!

Date:

Astronomy

Jul. 21, 2014 Rise Set
Actual Time 6:28 AM EDT 8:50 PM EDT
Civil Twilight 5:58 AM EDT 9:20 PM EDT
Nautical Twilight 5:21 AM EDT 9:57 PM EDT
Astronomical Twilight 4:40 AM EDT 10:37 PM EDT
Moon 2:16 AM EDT (7/21) 4:33 PM EDT (7/21)
Length of Visible Light 15h 22m
Length of Day
14h 22m
Waning Crescent, 24% of the Moon is Illuminated
Jul 21
Waning Crescent
Jul 26
New
Aug 3
First Quarter
Aug 10
Full
Aug 17
Last Quarter

Hourly Weather History & Observations

Time (EDT) Temp. Heat Index Dew Point Humidity Pressure Visibility Wind Dir Wind Speed Gust Speed Precip Events Conditions
12:53 AM 69.1 °F - 66.9 °F 93% 30.04 in 8.0 mi Calm Calm - N/A   Scattered Clouds
1:53 AM 69.1 °F - 66.9 °F 93% 30.04 in 7.0 mi Calm Calm - N/A   Partly Cloudy
2:34 AM 69.1 °F - 66.9 °F 93% 30.08 in 3.0 mi Calm Calm - N/A   Scattered Clouds
2:53 AM 69.1 °F - 66.9 °F 93% 30.03 in 9.0 mi Variable 3.5 mph - N/A   Partly Cloudy
3:53 AM 69.1 °F - 66.9 °F 93% 30.02 in 10.0 mi ESE 3.5 mph - N/A   Clear
4:30 AM 69.1 °F - 66.9 °F 93% 30.07 in 6.0 mi Variable 3.5 mph - N/A   Partly Cloudy
4:41 AM 69.1 °F - 66.9 °F 93% 30.07 in 2.5 mi Calm Calm - N/A   Mostly Cloudy
4:53 AM 69.1 °F - 66.9 °F 93% 30.03 in 0.5 mi Calm Calm - N/A Fog Fog
5:53 AM 68.0 °F - 66.0 °F 93% 30.05 in 0.2 mi SSE 3.5 mph - N/A Fog Fog
6:09 AM 68.0 °F - 66.0 °F 93% 30.10 in 2.0 mi SSE 3.5 mph - N/A   Mostly Cloudy
6:14 AM 68.0 °F - 66.0 °F 93% 30.10 in 7.0 mi Calm Calm - N/A   Scattered Clouds
6:53 AM 68.0 °F - 66.0 °F 93% 30.07 in 7.0 mi Calm Calm - N/A   Mostly Cloudy
7:06 AM 68.0 °F - 66.9 °F 96% 30.12 in 1.2 mi Calm Calm - N/A   Mostly Cloudy
7:16 AM 68.0 °F - 66.9 °F 96% 30.12 in 0.8 mi Calm Calm - N/A   Mostly Cloudy
7:23 AM 69.1 °F - 66.9 °F 93% 30.12 in 2.0 mi Calm Calm - N/A   Mostly Cloudy
7:31 AM 69.1 °F - 66.9 °F 93% 30.12 in 6.0 mi Calm Calm - N/A   Mostly Cloudy
7:53 AM 69.1 °F - 66.9 °F 93% 30.09 in 6.0 mi Calm Calm - N/A   Partly Cloudy
8:53 AM 72.0 °F - 68.0 °F 87% 30.11 in 10.0 mi Calm Calm - N/A   Clear
9:53 AM 75.0 °F - 68.0 °F 79% 30.12 in 10.0 mi Calm Calm - N/A   Clear
10:53 AM 78.1 °F - 68.0 °F 71% 30.11 in 10.0 mi Calm Calm - N/A   Clear
11:53 AM 81.0 °F 84.1 °F 69.1 °F 67% 30.11 in 10.0 mi Calm Calm - N/A   Clear
12:27 PM 81.0 °F 83.8 °F 68.0 °F 65% 30.14 in 10.0 mi Calm Calm - N/A   Mostly Cloudy
12:46 PM 81.0 °F 83.8 °F 68.0 °F 65% 30.14 in 10.0 mi Calm Calm - N/A   Mostly Cloudy
12:53 PM 81.0 °F 83.3 °F 66.9 °F 62% 30.09 in 10.0 mi Calm Calm - N/A   Mostly Cloudy
1:53 PM 82.9 °F 85.4 °F 66.9 °F 58% 30.08 in 10.0 mi Calm Calm - N/A   Mostly Cloudy
2:53 PM 86.0 °F 87.6 °F 64.9 °F 49% 30.06 in 10.0 mi Calm Calm - N/A   Clear
3:53 PM 84.0 °F 86.5 °F 66.9 °F 56% 30.06 in 10.0 mi Calm Calm - N/A   Clear
4:53 PM 84.9 °F 87.6 °F 66.9 °F 55% 30.05 in 10.0 mi Calm Calm - N/A   Partly Cloudy
5:53 PM 84.9 °F 88.2 °F 68.0 °F 57% 30.05 in 10.0 mi Variable 3.5 mph - N/A   Clear
6:53 PM 84.9 °F 87.6 °F 66.9 °F 55% 30.06 in 10.0 mi Variable 3.5 mph - N/A   Mostly Cloudy
7:53 PM 80.1 °F 82.9 °F 69.1 °F 69% 30.05 in 10.0 mi Calm Calm - N/A   Clear
8:53 PM 78.1 °F - 68.0 °F 71% 30.06 in 10.0 mi Calm Calm - N/A   Clear
9:53 PM 78.1 °F - 68.0 °F 71% 30.07 in 10.0 mi Variable 3.5 mph - N/A   Clear
10:53 PM 75.9 °F - 68.0 °F 76% 30.08 in 10.0 mi ENE 3.5 mph - N/A   Clear
11:53 PM 75.9 °F - 68.0 °F 76% 30.08 in 10.0 mi Calm Calm - N/A   Scattered Clouds